Location: Bas Lanzent
(48.1360°N, 3.5871°W)
Time: 04:55:26
(UTC+00:00)

STARLINK-1163 - Pass Details

Date: 18 February 2020
Orbit: 413 x 415 km, 53.0° (Epoch: 29 March)

Event Time Altitude Azimuth Distance (km) Brightness Sun altitude
Exits shadow 04:20:10 10° 58° (ENE) 1,366 6.5 -29.9°
Drops below altitude 10° 04:20:11 10° 58° (ENE) 1,373 6.5 -29.9°
Enters shadow 05:16:28 -69° 265° (W) 12,332 10.5 -20.7°
